Voltar ao catálogo

BLACKCAT

AtivoCiênciaSSO
NORAD 67369·PAYLOAD·🇺🇸 United States

Lançado Jan 11, 2026 de Vandenberg Space Force Base

Loading…

Próximas Passagens (próximas 24 horas)

TLE

AtualizadoSource: Space-Track

Época: Sep 14, 2026, 11:16 UTC

1 67369U 26004G   26257.46967228  .00000731  00000-0  85863-4 0  9994
2 67369  97.8044 254.4443 0006348 199.4852 160.6122 14.87867263 36560

Acompanhe BLACKCAT em tempo real com AllMySat

Download on the App Store